SURCAL 150B

Satellite information

Favourite Embed

Satellite Type and Status

PAYLOADIN ORBIT

Key statistics

Satellite SURCAL 150B at a glance.

Uptime

21326

Days in orbit

Revolutions

≈ 16.3

Per day

Orbit

LEO

Low Earth Orbit

Inclination

69.9

Latest

Satellite identification and parameters

Extended collection of information and parameters for SURCAL 150B.

Object identification

Identified? True

Debris? False

Object name: SURCAL 150B

International designator: 1967-053J

Object number (NORAD): 2909

Object ID (CCSDS): 2909

Country: UNITED STATES OF AMERICA (US)

Current information (Y/N): Y

RCS size: SMALL

Orbital parameters

Period: 88.375 minutes

Inclination: 69.882 deg

SMA: 6572.214 km

Apoapsis: 201.067 km

Periapsis: 187.09 km

RAAN: 134.172 deg

Eccentricy: 0.00106337

Argument of periapsis: 253.5263 deg

Mean anomaly: 106.4794 deg

Mean motion: 16.2942828 rev/day

Mean motion (dot): 0.18733045 rev/day2

B* drag term: 0.0043617491 1/REarth

Two-line elements (TLE)

Creation date: Oct. 18, 2025, 2:17 a.m.

Reference frame: TEME

Reference center: EARTH

Epoch: Oct. 17, 2025, 12:45 p.m. UTC

TLE line 0: 0 SURCAL 150B

TLE line 1: 1 02909U 67053J 25290.53157541 .18733045 43452-5 43617-2 0 9997

TLE line 2: 2 02909 69.8820 134.1720 0010634 253.5263 106.4794 16.29428280 44600

Live tracking on map

Real-time ground track for satellite SURCAL 150B.

In-orbit conjunctions

A list of the most updated potential collisions computed for object SURCAL 150B.

Target Orbit TCA Probability of collision Miss distance Type
COSMOS 2251 DEB LEO 2024-11-15 16:38:17 0.000171361 255.0 (m) DEBRIS
SPOT 1 SSO 2024-10-29 15:03:03 0.0001537878 623.0 (m) PAYLOAD
SL-14 R/B LEO 2024-09-10 07:45:14 0.002771819 524.0 (m) ROCKET BODY

Associated space launch

Poppy was the follow-on ELINT system, which succeeded the Grab ELINT satellite system.

SURCAL 150B was lifted into orbit during the mission ‘Thor SLV-2 Agena D | Poppy 7A,B,C,D’, on board a Thor SLV-2 Agena D space rocket.

The launch took place on May 31, 1967, 9:30 a.m. from Space Launch Complex 2W.

For more information about the launch, click the button.

Launch to space Thor SLV-2 Agena D | Poppy 7A,B,C,D
Thor SLV-2 Agena D | Poppy 7A,B,C,D

Agency: N/A

Status: Launch Successful

Launch date: May 31, 1967, 9:30 a.m. UTC

Rocket: Thor SLV-2 Agena D

Launch pad: Space Launch Complex 2W

Location: Vandenberg SFB, CA, USA

...

Latest news about this satellite

There are no fresh news available about this satellite. Check back as we update our databases every day.


Newsletter sign-up

Weekly statistics, charts and insights to help you stay on top of the space industry.